#timestamp,LO_Frequency,Hit,StdDev 
1633762815.4,286047002.6,P
1633762835.2,286047002.6,N
1633762855.1,286047002.7,P
1633762856.0,286047002.7,Y
1633762875.8,286046998.3,P
1633762895.6,286047001.2,N
1633762915.5,286046998.4,N
1633762935.3,286046999.3,N
1633762955.2,286046999.6,N
1633762975.9,286046999.1,N
1633762995.7,286046996.9,N
1633763015.6,286046999.1,N
1633763035.4,286046997.2,N
1633763055.2,286046995.4,Y
1633763075.1,286046997.0,P
1633763076.0,286046997.0,N
1633763095.8,286046997.8,N
1633763115.7,286046997.6,N
1633763135.5,286046998.0,N
1633763155.3,286046999.2,N
1633763175.2,286046997.1,Y
1633763195.0,286047000.9,P
1633763195.9,286047000.9,N
1633763215.8,286046999.9,N
1633763235.6,286047000.5,N
1633763255.4,286046999.9,N
1633763275.3,286047000.4,N
1633763295.1,286047001.9,N
1633763315.8,286047001.4,N
1633763335.7,286047002.2,N
1633763355.5,286047001.4,N
1633763375.4,286047002.2,N
1633763395.2,286047000.1,N
1633763415.0,286047002.2,N
1633763415.9,286047002.2,N
1633763435.8,286047001.9,N
1633763455.6,286047002.1,N
1633763475.4,286047002.5,N
1633763495.3,286047000.1,N
1633763515.1,286046999.9,N
1633763535.9,286047001.1,N
1633763555.7,286046998.1,N
1633763575.5,286046999.9,N
1633763595.4,286046999.7,N
1633763615.2,286047002.5,N
1633763635.0,286047002.5,N
1633763635.9,286047002.5,N
1633763655.8,286047001.6,N
1633763675.6,286047000.6,N
1633763695.5,286046998.2,N
1633763715.3,286046996.5,N
1633763735.1,286046998.4,N
1633763755.9,286046998.3,N
1633763775.7,286047000.3,N
1633763795.5,286047000.3,N
1633763815.4,286047002.7,N
1633763835.2,286047000.5,N
1633763855.1,286047000.0,N
1633763856.0,286047000.0,N
1633763875.8,286047000.5,N
1633763895.6,286046999.7,N
1633763915.5,286047000.9,N
1633763935.3,286047000.5,N
1633763955.2,286047000.7,N
1633763975.9,286046998.1,N
1633763995.7,286046998.2,N
1633764015.6,286047001.2,N
1633764035.4,286047000.6,N
1633764055.2,286047000.6,N
1633764075.1,286046999.7,N
1633764076.0,286046999.7,N
1633764095.8,286047000.3,N
1633764115.7,286047001.1,N
1633764135.5,286046998.5,N
1633764155.3,286046998.1,N
1633764175.2,286046997.2,N
1633764195.0,286046999.1,N
1633764195.9,286046999.1,N
1633764215.7,286046997.7,N
1633764235.6,286046998.9,N
1633764255.4,286046999.4,N
1633764275.3,286046997.0,N
1633764295.1,286046999.6,N
1633764296.0,286046999.6,N
1633764315.8,286046995.3,Y
1633764335.7,286046997.6,P
1633764355.5,286046996.2,P
1633764375.4,286046994.5,P
1633764395.2,286046995.8,N
1633764415.0,286046995.4,N
1633764415.9,286046995.4,N
1633764435.8,286046997.7,N
1633764455.6,286046997.9,N
1633764475.4,286046995.3,Y
1633764495.3,286046999.6,P
1633764515.1,286047000.6,N
1633764535.9,286046996.5,N
1633764555.7,286046997.1,N
1633764575.5,286046997.7,N
1633764595.4,286046997.7,N
1633764615.2,286046996.5,N
1633764635.0,286046999.0,N
1633764636.0,286046999.0,N
1633764655.8,286046998.5,N
1633764675.6,286046998.3,N
1633764695.5,286046999.8,N
1633764715.3,286047000.2,N
1633764735.1,286047002.7,N
1633764755.9,286047000.6,N
1633764775.7,286047000.5,N
1633764795.6,286046999.7,N
1633764815.4,286047002.7,N
1633764835.2,286047001.8,N
1633764855.1,286047002.0,N
1633764856.0,286047002.0,N
1633764875.8,286047000.7,N
1633764895.6,286047000.0,N
1633764915.5,286047002.7,N
1633764935.3,286047001.5,N
1633764955.2,286047002.5,N
1633764975.9,286047002.5,N
1633764995.7,286046998.5,N
1633765015.6,286047000.1,N
1633765035.4,286047000.2,N
1633765055.2,286047000.5,N
1633765075.1,286047000.1,N
1633765076.0,286047000.1,N
1633765095.8,286046999.8,N
1633765115.7,286047002.2,N
1633765135.5,286047000.2,N
1633765155.3,286047002.1,N
1633765175.2,286047002.1,N
1633765195.0,286047000.1,N
1633765195.9,286047000.1,N
1633765215.8,286046998.8,N
1633765235.6,286046998.1,N
1633765255.4,286046998.5,N
1633765275.3,286046998.3,N
1633765295.1,286046998.5,N
1633765315.8,286047000.7,N
1633765335.7,286047001.2,N
1633765355.5,286047001.1,N
1633765375.3,286046999.5,N
1633765395.2,286046998.4,N
1633765415.0,286046998.7,N
1633765415.9,286046998.7,N
1633765435.8,286046998.4,N
1633765455.6,286046998.4,N
1633765475.4,286047000.5,N
1633765495.3,286046998.2,N
1633765515.1,286046998.3,N
1633765535.9,286046999.1,N
1633765555.7,286046998.2,N
1633765575.5,286047000.7,N
1633765595.4,286047000.3,N
1633765615.2,286046998.5,N
1633765635.0,286047000.9,N
1633765635.9,286047000.9,N
1633765655.8,286047000.8,N
1633765675.6,286046999.5,N
1633765695.5,286046998.6,N
1633765715.3,286046998.9,N
1633765735.1,286046999.0,N
1633765755.9,286046997.0,N
1633765775.7,286046996.8,N
1633765795.5,286046995.5,Y
1633765815.4,286046995.0,P
1633765835.2,286046996.5,N
1633765855.1,286046997.7,N
1633765856.0,286046997.7,N
1633765875.8,286046993.4,Y
1633765895.6,286046998.5,P
1633765915.5,286046998.2,N
1633765935.3,286047000.9,N
1633765955.2,286047002.6,N
1633765975.9,286047002.0,N
1633765995.7,286047002.7,N
1633766015.6,286047002.3,N
1633766035.4,286047001.5,N
1633766055.2,286047001.6,N
1633766075.1,286047004.4,N
1633766076.0,286047004.4,N
1633766095.8,286047002.1,N
1633766115.7,286047004.0,N
1633766135.5,286047001.9,N
1633766155.3,286047004.1,N
1633766175.2,286046999.7,N
1633766195.0,286047002.1,N
1633766195.9,286047002.1,N
1633766215.7,286047002.3,N
1633766235.6,286047001.0,N
1633766255.4,286047001.2,N
1633766275.3,286047000.8,N
1633766295.1,286047000.3,N
1633766296.0,286047000.3,N
1633766315.8,286047001.0,N
1633766335.7,286047001.1,N
1633766355.5,286047002.5,N
1633766375.3,286047001.5,N
1633766395.2,286047004.2,N
